�N����,����,�~����,�C��,���x,�C��,����,���ϕ���,�ő�u�ԕ���,�ő厞����,���˗�,�I�_���x,�n�����x,�ő啗���N��,DTYPE
"20/11/04","00:10",0.0,8.6,74.5,1010.4,304.0,2.1,4.3,338.9,0.00,4.4,14.2,"00:08:48",1
"20/11/04","00:20",0.0,8.7,75.0,1010.4,288.5,2.2,4.4,330.8,0.00,4.6,14.2,"00:13:28",1
"20/11/04","00:30",0.0,8.4,75.5,1010.0,288.1,1.7,3.2,243.8,0.00,4.4,14.3,"00:25:52",1
"20/11/04","00:40",0.0,8.6,75.5,1010.4,299.5,2.5,5.2,318.7,0.00,4.6,14.1,"00:35:02",1
"20/11/04","00:50",0.0,8.6,75.4,1010.7,286.2,2.0,3.6,308.7,0.00,4.5,14.1,"00:45:04",1
"20/11/04","01:00",0.0,9.0,74.6,1010.7,317.0,3.4,11.4,342.0,0.00,4.8,13.8,"00:57:04",1
"20/11/04","01:10",0.0,9.3,72.6,1010.2,331.7,4.7,9.0,344.9,0.00,4.7,14.1,"01:05:44",1
"20/11/04","01:20",0.0,9.1,71.9,1010.7,327.8,4.2,9.4,334.3,0.00,4.3,13.7,"01:10:32",1
"20/11/04","01:30",0.0,9.2,71.1,1011.2,332.4,5.1,10.8,319.0,0.00,4.3,13.9,"01:26:18",1
"20/11/04","01:40",0.0,9.3,69.2,1011.2,336.1,4.0,7.8,320.8,0.00,4.0,13.7,"01:34:48",1
"20/11/04","01:50",0.0,9.1,68.7,1010.9,322.9,2.5,5.4,311.5,0.00,3.7,13.8,"01:47:04",1
"20/11/04","02:00",0.0,9.0,68.2,1010.9,314.9,2.8,5.6,330.9,0.00,3.5,13.6,"01:59:36",1
"20/11/04","02:10",0.0,8.9,68.1,1011.2,296.7,2.6,7.5,327.3,0.00,3.4,13.5,"02:00:16",1
"20/11/04","02:20",0.0,8.3,69.8,1010.9,234.4,0.8,2.2,312.8,0.00,3.2,13.4,"02:11:20",1
"20/11/04","02:30",0.0,7.7,71.7,1010.7,218.6,0.5,1.4,90.5,0.00,3.0,13.5,"02:27:28",1
"20/11/04","02:40",0.0,7.5,73.8,1010.2,182.1,0.7,1.9,232.2,0.00,3.2,13.4,"02:39:52",1
"20/11/04","02:50",0.0,7.2,74.7,1010.9,289.0,1.2,2.4,331.7,0.00,3.1,13.3,"02:49:04",1
"20/11/04","03:00",0.0,8.1,74.8,1010.2,300.0,2.5,5.4,322.3,0.00,3.9,13.3,"02:53:36",1
"20/11/04","03:10",0.0,8.1,74.4,1010.9,271.1,2.0,4.0,245.8,0.00,3.9,13.3,"03:09:04",1
"20/11/04","03:20",0.0,8.1,74.3,1010.4,280.1,1.8,3.4,241.9,0.00,3.8,13.2,"03:10:32",1
"20/11/04","03:30",0.0,8.0,74.4,1010.7,270.5,1.7,3.9,255.8,0.00,3.8,13.3,"03:23:36",1
"20/11/04","03:40",0.0,7.9,74.6,1010.7,280.0,1.6,3.9,292.7,0.00,3.7,13.1,"03:39:20",1
"20/11/04","03:50",0.0,8.0,74.4,1010.9,304.4,1.3,3.3,251.2,0.00,3.8,13.2,"03:42:32",1
"20/11/04","04:00",0.0,7.4,75.0,1011.2,267.9,0.8,2.5,318.4,0.00,3.3,13.2,"03:56:56",1
"20/11/04","04:10",0.0,7.1,76.0,1010.9,227.6,1.2,2.6,247.5,0.00,3.2,13.1,"04:08:16",1
"20/11/04","04:20",0.0,7.3,76.6,1010.7,289.7,1.2,2.6,316.6,0.00,3.5,13.2,"04:13:44",1
"20/11/04","04:30",0.0,7.6,76.6,1010.7,290.4,2.0,4.5,328.1,0.00,3.8,12.9,"04:26:48",1
"20/11/04","04:40",0.0,8.3,75.0,1011.4,288.0,2.5,4.5,316.9,0.00,4.2,13.0,"04:33:04",1
"20/11/04","04:50",0.0,8.5,73.3,1011.4,283.5,1.8,5.8,265.0,0.00,4.0,13.0,"04:42:08",1
"20/11/04","05:00",0.0,8.5,72.3,1011.6,271.5,1.7,4.2,291.0,0.00,3.8,12.9,"04:59:12",1
"20/11/04","05:10",0.0,8.6,71.5,1011.9,265.8,2.0,3.9,299.4,0.00,3.8,12.8,"05:08:08",1
"20/11/04","05:20",0.0,8.3,71.5,1012.1,274.0,1.7,3.5,291.0,0.00,3.5,12.9,"05:13:28",1
"20/11/04","05:30",0.0,8.4,71.7,1012.3,307.8,2.2,4.3,331.5,0.00,3.6,13.1,"05:26:40",1
"20/11/04","05:40",0.0,8.2,72.0,1012.6,318.0,1.8,5.1,340.0,0.00,3.5,13.1,"05:31:52",1
"20/11/04","05:50",0.0,8.3,72.1,1012.8,309.8,1.8,3.6,322.7,0.00,3.6,13.0,"05:45:28",1
"20/11/04","06:00",0.0,7.9,73.0,1013.0,302.6,1.0,3.3,304.4,0.00,3.4,13.0,"05:59:28",1
"20/11/04","06:10",0.0,7.9,74.0,1012.8,261.7,1.5,2.7,262.2,0.00,3.6,12.7,"06:07:44",1
"20/11/04","06:20",0.0,7.9,74.1,1012.8,290.7,1.5,2.4,302.0,0.00,3.6,12.8,"06:10:40",1
"20/11/04","06:30",0.0,7.6,74.6,1013.0,318.9,0.8,1.6,325.2,0.00,3.4,12.7,"06:21:52",1
"20/11/04","06:40",0.0,7.7,75.5,1013.0,328.0,1.1,2.9,340.7,0.00,3.7,12.7,"06:35:36",1
"20/11/04","06:50",0.0,7.6,75.7,1013.3,298.0,1.2,2.9,317.2,0.00,3.6,12.6,"06:44:48",1
"20/11/04","07:00",0.0,7.5,76.9,1013.3,323.7,2.0,2.7,321.5,0.00,3.8,12.8,"06:52:24",1
"20/11/04","07:10",0.0,7.6,77.7,1013.5,297.8,1.6,2.2,315.2,0.00,4.0,12.7,"07:06:16",1
"20/11/04","07:20",0.0,7.8,78.4,1013.8,306.0,1.7,2.2,322.5,0.01,4.3,12.7,"07:19:44",1
"20/11/04","07:30",0.0,8.3,79.2,1014.0,314.7,1.7,2.5,336.1,0.03,5.0,12.7,"07:22:48",1
"20/11/04","07:40",0.0,9.1,79.6,1014.2,270.3,1.0,2.0,327.0,0.05,5.8,12.8,"07:30:16",1
"20/11/04","07:50",0.0,9.6,78.5,1014.5,260.7,1.3,2.7,238.8,0.06,6.1,12.8,"07:42:48",1
"20/11/04","08:00",0.0,9.9,76.2,1014.9,245.7,1.8,4.1,238.4,0.08,6.0,12.9,"07:58:40",1
"20/11/04","08:10",0.0,10.6,74.0,1014.9,250.8,1.2,2.4,239.3,0.10,6.2,13.1,"08:02:24",1
"20/11/04","08:20",0.0,11.2,72.0,1015.2,277.3,1.1,2.7,266.2,0.13,6.4,13.2,"08:17:04",1
"20/11/04","08:30",0.0,11.6,68.9,1015.4,264.5,1.6,5.0,236.3,0.16,6.1,13.2,"08:21:20",1
"20/11/04","08:40",0.0,11.6,67.3,1015.6,264.8,1.5,3.3,238.8,0.16,5.8,13.4,"08:36:40",1
"20/11/04","08:50",0.0,11.8,66.8,1015.4,261.9,2.0,3.1,239.6,0.19,5.9,13.3,"08:40:02",1
"20/11/04","09:00",0.0,12.1,66.8,1015.6,269.5,1.6,4.9,238.1,0.19,6.2,13.4,"08:55:12",1
"20/11/04","09:10",0.0,12.4,64.8,1015.4,266.8,1.8,3.6,234.2,0.25,6.0,13.5,"09:09:36",1
"20/11/04","09:20",0.0,12.8,63.5,1015.6,279.8,1.7,3.2,333.7,0.28,6.1,13.7,"09:17:20",1
"20/11/04","09:30",0.0,13.2,62.4,1015.2,270.6,1.3,3.4,234.2,0.29,6.2,13.9,"09:23:52",1
"20/11/04","09:40",0.0,13.3,60.9,1015.6,269.5,1.7,3.7,232.0,0.32,6.0,14.0,"09:38:16",1
"20/11/04","09:50",0.0,13.3,61.3,1015.2,262.4,1.8,4.3,229.9,0.34,6.1,14.2,"09:46:08",1
"20/11/04","10:00",0.0,13.8,61.4,1014.9,266.4,1.7,3.5,238.6,0.36,6.6,14.2,"09:59:44",1
"20/11/04","10:10",0.0,14.1,60.1,1014.9,264.7,2.1,5.9,219.3,0.37,6.5,14.4,"10:04:08",1
"20/11/04","10:20",0.0,14.1,58.0,1014.7,300.7,2.3,5.5,348.1,0.39,6.0,14.4,"10:18:48",1
"20/11/04","10:30",0.0,14.6,58.5,1014.5,265.1,1.7,4.7,329.5,0.40,6.6,14.8,"10:21:04",1
"20/11/04","10:40",0.0,14.8,55.4,1014.9,270.9,2.1,5.0,229.6,0.42,6.0,15.1,"10:32:56",1
"20/11/04","10:50",0.0,14.6,55.5,1014.7,313.0,3.1,5.9,339.1,0.43,5.8,15.1,"10:47:20",1
"20/11/04","11:00",0.0,14.9,53.7,1014.5,280.5,2.5,8.0,332.8,0.47,5.6,15.2,"10:54:48",1
"20/11/04","11:10",0.0,15.1,53.8,1014.2,261.7,2.5,5.4,219.3,0.47,5.9,15.5,"11:06:16",1
"20/11/04","11:20",0.0,15.3,52.4,1014.5,264.6,2.2,4.9,331.6,0.46,5.7,15.7,"11:18:00",1
"20/11/04","11:30",0.0,15.8,52.2,1014.0,265.1,2.1,4.8,242.2,0.47,6.1,15.7,"11:24:00",1
"20/11/04","11:40",0.0,16.0,51.7,1014.2,280.7,2.0,4.0,302.6,0.49,6.1,15.9,"11:30:32",1
"20/11/04","11:50",0.0,16.2,50.7,1014.0,270.7,2.3,4.4,229.2,0.51,6.0,16.1,"11:47:04",1
"20/11/04","12:00",0.0,16.1,51.0,1013.5,283.9,1.3,2.7,283.9,0.24,6.0,15.9,"11:54:48",1
"20/11/04","12:10",0.0,15.9,51.1,1013.8,327.0,2.0,4.4,340.3,0.33,5.9,16.3,"12:05:20",1
"20/11/04","12:20",0.0,15.0,52.8,1013.8,328.8,2.6,5.2,329.2,0.15,5.5,16.1,"12:10:24",1
"20/11/04","12:30",0.0,14.9,52.7,1014.0,319.9,2.6,7.2,333.1,0.24,5.4,16.2,"12:22:32",1
"20/11/04","12:40",0.0,15.5,49.9,1013.8,316.9,2.2,4.7,325.2,0.33,5.1,16.4,"12:30:02",1
"20/11/04","12:50",0.0,14.6,52.1,1013.8,312.3,2.6,5.1,326.2,0.13,4.9,16.1,"12:46:00",1
"20/11/04","13:00",0.0,15.0,51.4,1013.8,309.2,2.7,5.5,344.9,0.21,5.1,16.3,"12:55:12",1
"20/11/04","13:10",0.0,14.7,52.1,1013.5,319.1,2.8,5.9,344.6,0.11,5.0,16.2,"13:09:52",1
"20/11/04","13:20",0.0,15.1,52.6,1013.5,295.9,2.8,6.2,341.1,0.26,5.5,16.0,"13:17:44",1
"20/11/04","13:30",0.0,16.0,49.0,1013.5,278.3,2.2,4.4,268.9,0.42,5.3,16.4,"13:21:52",1
"20/11/04","13:40",0.0,15.7,48.8,1013.3,313.2,2.2,5.8,330.3,0.20,5.0,16.2,"13:31:36",1
"20/11/04","13:50",0.0,16.3,49.2,1013.5,276.2,2.2,4.7,333.7,0.37,5.7,16.2,"13:42:16",1
"20/11/04","14:00",0.0,16.8,49.5,1013.5,296.9,2.1,4.5,239.0,0.39,6.2,16.4,"13:53:28",1
"20/11/04","14:10",0.0,16.6,49.2,1013.8,303.4,2.1,5.5,359.4,0.28,6.0,16.3,"14:00:24",1
"20/11/04","14:20",0.0,16.6,49.4,1013.8,332.4,2.1,6.3,340.0,0.32,6.0,16.5,"14:18:40",1
"20/11/04","14:30",0.0,16.5,47.7,1014.0,277.1,2.2,5.0,291.0,0.31,5.4,16.6,"14:26:56",1
"20/11/04","14:40",0.0,16.3,46.7,1014.2,267.6,2.2,6.4,236.2,0.27,4.9,16.9,"14:37:52",1
"20/11/04","14:50",0.0,16.3,49.0,1014.0,285.2,2.1,4.1,290.9,0.24,5.6,16.7,"14:42:40",1
"20/11/04","15:00",0.0,15.7,48.7,1014.2,283.5,2.5,5.2,340.6,0.17,5.0,16.7,"14:51:52",1
"20/11/04","15:10",0.0,15.3,49.1,1014.5,295.5,2.1,5.1,332.2,0.14,4.7,16.7,"15:09:04",1
"20/11/04","15:20",0.0,15.5,49.2,1014.5,295.2,2.3,3.9,236.0,0.16,4.9,16.7,"15:13:28",1
"20/11/04","15:30",0.0,15.7,49.0,1014.7,264.7,1.8,3.6,232.0,0.13,5.1,16.6,"15:27:20",1
"20/11/04","15:40",0.0,15.0,49.0,1014.7,292.8,1.8,3.2,348.1,0.04,4.4,16.3,"15:30:08",1
"20/11/04","15:50",0.0,14.7,51.0,1014.7,323.6,1.6,3.5,313.4,0.02,4.7,16.5,"15:40:02",1
"20/11/04","16:00",0.0,14.4,52.4,1014.9,326.0,2.0,4.1,341.9,0.02,4.8,16.4,"15:51:20",1
"20/11/04","16:10",0.0,14.3,52.3,1014.9,306.2,1.7,3.4,348.3,0.01,4.7,16.2,"16:04:16",1
"20/11/04","16:20",0.0,13.9,55.1,1014.9,326.7,1.3,2.2,323.2,0.00,5.1,16.3,"16:14:08",1
"20/11/04","16:30",0.0,13.2,58.3,1015.2,334.2,1.7,3.5,340.9,0.00,5.2,16.0,"16:25:42",1
"20/11/04","16:40",0.0,12.9,59.4,1015.2,331.8,1.6,3.3,320.3,0.00,5.2,16.0,"16:35:36",1
"20/11/04","16:50",0.0,12.8,58.8,1015.4,330.0,2.0,3.4,327.9,0.00,5.0,15.8,"16:44:52",1
"20/11/04","17:00",0.0,12.7,59.0,1015.6,326.4,2.1,3.5,338.5,0.00,4.9,15.6,"16:53:44",1
"20/11/04","17:10",0.0,12.4,59.8,1015.6,329.9,2.6,4.2,338.8,0.00,4.9,15.7,"17:09:34",1
"20/11/04","17:20",0.0,12.0,61.6,1015.6,315.1,2.2,3.7,337.2,0.00,4.9,15.6,"17:12:58",1
"20/11/04","17:30",0.0,11.6,63.1,1015.9,323.4,2.7,5.4,341.6,0.00,4.9,15.5,"17:29:14",1
"20/11/04","17:40",0.0,11.4,62.9,1015.6,327.2,2.6,3.6,328.8,0.00,4.6,15.3,"17:39:34",1
"20/11/04","17:50",0.0,11.4,61.7,1015.6,325.9,2.5,4.5,336.4,0.00,4.4,15.3,"17:46:54",1
"20/11/04","18:00",0.0,11.7,59.2,1016.1,315.3,2.8,6.6,341.9,0.00,4.0,15.2,"17:53:22",1
"20/11/04","18:10",0.0,11.3,60.1,1016.1,305.5,1.7,2.6,320.5,0.00,3.9,15.0,"18:05:32",1
"20/11/04","18:20",0.0,10.9,62.8,1016.4,311.2,1.6,2.8,313.3,0.00,4.1,15.0,"18:17:56",1
"20/11/04","18:30",0.0,10.5,65.4,1016.4,330.9,2.1,2.8,337.4,0.00,4.3,15.0,"18:21:44",1
"20/11/04","18:40",0.0,10.2,67.2,1016.6,330.3,2.0,2.9,336.9,0.00,4.4,14.7,"18:38:00",1
"20/11/04","18:50",0.0,10.0,68.7,1016.4,327.3,2.1,3.3,310.5,0.00,4.6,14.8,"18:46:48",1
"20/11/04","19:00",0.0,9.9,70.0,1016.6,334.1,2.2,3.6,336.1,0.00,4.7,14.7,"18:54:32",1
"20/11/04","19:10",0.0,9.5,71.4,1016.6,327.8,2.1,2.8,339.6,0.00,4.6,14.5,"19:09:52",1
"20/11/04","19:20",0.0,9.0,72.8,1016.8,327.5,2.1,3.2,327.4,0.00,4.4,14.4,"19:13:04",1
"20/11/04","19:30",0.0,8.8,74.2,1016.8,328.5,2.2,3.3,341.0,0.00,4.5,14.5,"19:28:00",1
"20/11/04","19:40",0.0,8.6,75.6,1017.1,327.2,2.3,3.7,334.6,0.00,4.6,14.3,"19:32:32",1
"20/11/04","19:50",0.0,8.5,76.9,1017.1,327.0,2.2,3.4,325.7,0.00,4.7,14.5,"19:46:08",1
"20/11/04","20:00",0.0,8.3,78.5,1017.5,322.2,2.3,3.4,333.2,0.00,4.8,14.1,"19:54:16",1
"20/11/04","20:10",0.0,8.3,79.9,1017.3,319.7,2.6,4.2,312.3,0.00,5.1,14.1,"20:09:20",1
"20/11/04","20:20",0.0,8.2,80.8,1017.3,318.8,2.5,4.0,336.6,0.00,5.1,13.9,"20:17:52",1
"20/11/04","20:30",0.0,8.0,81.7,1017.5,324.0,2.7,3.7,323.1,0.00,5.1,14.0,"20:28:32",1
"20/11/04","20:40",0.0,7.9,82.4,1017.3,309.4,2.3,3.7,284.2,0.00,5.1,13.9,"20:30:32",1
"20/11/04","20:50",0.0,7.8,83.1,1017.5,309.3,2.3,3.5,338.9,0.00,5.2,14.0,"20:46:56",1
"20/11/04","21:00",0.0,7.7,83.5,1017.8,314.7,2.3,3.6,319.6,0.00,5.1,13.9,"20:52:00",1
"20/11/04","21:10",0.0,7.4,83.8,1018.0,286.8,1.7,2.6,321.0,0.00,4.9,13.7,"21:05:12",1
"20/11/04","21:20",0.0,6.9,84.3,1017.8,307.0,1.0,1.8,314.4,0.00,4.5,13.6,"21:18:08",1
"20/11/04","21:30",0.0,6.4,84.7,1017.8,292.4,1.2,1.9,318.8,0.00,4.1,13.5,"21:26:08",1
"20/11/04","21:40",0.0,6.0,85.2,1018.2,288.3,0.7,1.6,283.8,0.00,3.7,13.5,"21:35:04",1
"20/11/04","21:50",0.0,5.9,85.5,1018.5,303.3,1.1,1.8,322.0,0.00,3.7,13.4,"21:49:44",1
"20/11/04","22:00",0.0,5.9,86.0,1018.0,310.7,1.7,2.5,328.2,0.00,3.8,13.3,"21:52:48",1
"20/11/04","22:10",0.0,5.8,86.8,1018.2,293.3,1.2,1.8,304.8,0.00,3.8,13.3,"22:05:32",1
"20/11/04","22:20",0.0,6.1,87.5,1018.5,279.8,1.5,2.4,264.9,0.00,4.2,13.3,"22:18:48",1
"20/11/04","22:30",0.0,6.7,87.7,1018.5,327.7,1.7,3.2,325.3,0.00,4.8,13.2,"22:22:32",1
"20/11/04","22:40",0.0,6.6,87.9,1018.5,298.0,1.1,1.8,319.9,0.00,4.8,13.0,"22:30:32",1
"20/11/04","22:50",0.0,6.6,88.4,1018.5,317.3,0.8,2.4,325.3,0.00,4.9,13.1,"22:43:12",1
"20/11/04","23:00",0.0,6.4,88.6,1018.2,292.4,1.2,2.2,321.5,0.00,4.7,13.0,"22:51:36",1
"20/11/04","23:10",0.0,6.0,89.0,1018.2,287.8,1.3,1.8,264.4,0.00,4.4,12.8,"23:06:16",1
"20/11/04","23:20",0.0,5.9,89.3,1018.2,309.6,1.5,2.1,325.5,0.00,4.3,12.8,"23:14:48",1
"20/11/04","23:30",0.0,5.6,89.6,1018.2,309.1,1.5,2.0,290.5,0.00,4.1,12.9,"23:23:28",1
"20/11/04","23:40",0.0,5.4,89.9,1018.2,304.0,1.2,1.9,318.1,0.00,3.9,12.8,"23:31:20",1
"20/11/04","23:50",0.0,5.4,90.3,1018.0,298.5,1.5,2.5,324.2,0.00,4.0,12.7,"23:47:52",1
"20/11/04","24:00",0.0,5.4,90.5,1018.0,306.0,1.5,1.8,316.0,0.00,4.0,12.6,"23:56:00",1
